Location: ?????
(44.4284°N, 135.2222°E)
Time: 09:47:03
(UTC+00:00)

Cosmos 1725 Rocket - Pass Details

Date: 19 May 2025
Orbit: 961 x 990 km, 82.9° (Epoch: 12 June)

Event Time Altitude Azimuth Distance (km) Brightness Sun altitude
Rises 16:09:19 0° 349° (NNW) 3,661 8.0 -23.5°
Reaches altitude 10° 16:11:51 10° 346° (NNW) 2,713 7.1 -23.3°
Maximum altitude 16:17:59 65° 266° (W) 1,058 4.0 -23.0°
Enters shadow 16:19:41 47° 207° (SSW) 1,268 4.1 -22.8°
